[Date Prev][Date Next][Thread Prev][Thread Next] - [Date Index][Thread Index][Author Index]
2 Line ISS Keps - Latest updated ones
- Subject: [sarex] 2 Line ISS Keps - Latest updated ones
- From: "Dr Dave Larsen [ PhD ]" <doc@xxxxxxxxxxx>
- Date: Fri, 27 Apr 2001 14:27:49 -0700
ISS
1 25544U 98067A 01117.83067601 .00193229 00000-0 24409-2 0 9099
2 25544 51.5732 342.4112 0017057 345.9389 118.4723 15.58209607139218
----
Via the sarex mailing list at AMSAT.ORG courtesy of AMSAT-NA.
To unsubscribe, send "unsubscribe sarex" to Majordomo@amsat.org
AMSAT Home